FW4672 Weather Reports


Display with metric or nautical units.
time (UTC)temp
F
wind
direction
speed
MPH
gust
MPH
rain 1hr
in
rain 24hr
in
rain mn
in
humidity
%
barometer
mb
20260510041229 61 337 0.0 0.0 0.00 0.00 0.00 86 1032.1
20260510040230 61 315 0.0 0.0 0.00 0.00 0.00 86 1032.0
20260510035231 61 337 0.0 0.0 0.00 0.00 0.00 87 1031.9
20260510034232 61 315 0.0 0.0 0.00 0.00 0.00 86 1031.9
20260510033232 61 317 0.0 0.0 0.00 0.00 0.00 87 1031.8
20260510032329 61 315 0.0 0.0 0.00 0.00 0.00 87 1031.6
20260510031330 61 315 0.0 0.0 0.00 0.00 0.00 86 1031.5
20260510030332 61 315 0.0 0.0 0.00 0.00 0.00 86 1031.2
20260510025332 61 326 0.0 0.0 0.00 0.00 0.00 85 1031.1
20260510024330 61 337 0.0 0.0 0.00 0.00 0.00 85 1031.2
20260510023333 62 313 0.0 0.0 0.00 0.00 0.00 85 1031.0
20260510022331 62 316 0.0 0.0 0.00 0.00 0.00 83 1031.0
20260510021331 62 337 0.0 0.0 0.00 0.00 0.00 83 1031.0
20260510020429 62 328 0.0 0.0 0.00 0.00 0.00 83 1031.0
20260510014432 64 332 0.0 0.0 0.00 0.00 0.00 81 1030.9
20260510012429 66 335 0.0 0.0 0.00 0.00 0.00 78 1030.8
20260510010432 67 322 0.0 0.0 0.00 0.00 0.00 77 1030.8
20260510005530 67 335 0.0 0.0 0.00 0.00 0.00 76 1030.9
20260510003530 68 320 0.0 0.0 0.00 0.00 0.00 76 1031.0
20260510002531 69 316 0.0 0.0 0.00 0.00 0.00 75 1030.8
20260510001532 69 333 0.0 0.0 0.00 0.00 0.00 75 1030.8
20260510000533 69 320 0.0 0.0 0.00 0.00 0.00 76 1030.7
20260509235529 69 323 0.0 0.0 0.00 0.00 0.00 75 1030.5
20260509234531 68 332 0.0 0.0 0.00 0.00 0.00 76 1030.5
20260509233531 69 300 0.0 0.0 0.00 0.00 0.00 76 1030.7
20260509232530 68 335 0.0 0.0 0.00 0.00 0.00 78 1030.6
20260509231531 68 337 0.0 0.0 0.00 0.00 0.00 78 1030.7
20260509230531 68 333 0.0 0.0 0.00 0.00 0.00 77 1030.8
20260509223529 68 273 0.0 0.0 0.00 0.00 0.00 79 1031.0
20260509222531 68 291 0.0 0.0 0.00 0.00 0.00 79 1031.0
20260509221532 68 318 0.0 0.0 0.00 0.00 0.00 79 1031.0
20260509215532 68 316 0.0 0.0 0.00 0.00 0.00 80 1031.2
20260509213632 68 244 0.0 0.0 0.00 0.00 0.00 81 1031.3
20260509212631 68 277 0.0 0.0 0.00 0.00 0.00 81 1031.4
20260509211631 68 309 0.0 0.0 0.00 0.00 0.00 82 1031.7
20260509211531 68 309 0.0 0.0 0.00 0.00 0.00 81 1031.7
20260509210530 67 314 0.0 0.0 0.00 0.00 0.00 82 1031.6
20260509205531 68 311 0.0 0.0 0.00 0.00 0.00 81 1031.8
20260509204629 68 291 0.0 0.0 0.00 0.00 0.00 80 1031.9
20260509203630 68 308 0.0 0.0 0.00 0.00 0.00 81 1032.0
20260509202630 68 287 0.0 0.0 0.00 0.00 0.00 82 1032.0
20260509201630 67 308 0.0 0.0 0.00 0.00 0.00 82 1032.1
20260509200729 67 204 0.0 0.0 0.00 0.00 0.00 80 1032.2
20260509195732 67 300 0.0 0.0 0.00 0.00 0.00 82 1032.1
20260509194731 67 317 0.0 0.0 0.00 0.00 0.00 83 1032.1
20260509193732 67 308 0.0 0.0 0.00 0.00 0.00 83 1032.1
20260509192830 67 290 0.0 0.0 0.00 0.00 0.00 83 1032.2
20260509191830 67 193 0.0 0.0 0.00 0.00 0.00 83 1032.1
20260509185832 67 247 0.0 0.0 0.00 0.00 0.00 83 1032.1
20260509184832 66 255 0.0 0.0 0.00 0.00 0.00 83 1032.3
20260509183829 66 311 0.0 0.0 0.00 0.00 0.00 82 1032.2
20260509182831 65 330 0.0 0.0 0.00 0.00 0.00 82 1032.3
20260509180832 65 326 0.0 0.0 0.00 0.00 0.00 82 1032.4
20260509175829 64 328 0.0 0.0 0.00 0.00 0.00 84 1032.5
20260509173930 64 319 0.0 0.0 0.00 0.00 0.00 85 1032.6
20260509171029 63 324 0.0 0.0 0.00 0.00 0.00 88 1032.6
20260509170032 63 332 0.0 0.0 0.00 0.00 0.00 89 1032.6
20260509164029 62 317 0.0 0.0 0.00 0.00 0.00 89 1032.6
20260509162030 62 337 0.0 0.0 0.00 0.00 0.00 90 1032.7
20260509161032 62 316 0.0 0.0 0.00 0.00 0.00 89 1032.8
20260509160030 61 315 0.0 0.0 0.00 0.00 0.00 90 1032.8
20260509154129 61 336 0.0 0.0 0.00 0.00 0.00 91 1032.6
20260509153131 61 319 0.0 0.0 0.00 0.00 0.00 91 1032.6
20260509152131 61 333 0.0 0.0 0.00 0.00 0.00 91 1032.8
20260509151130 61 334 0.0 0.0 0.00 0.00 0.00 91 1032.7
20260509150130 61 337 0.0 0.0 0.00 0.00 0.00 91 1032.7
20260509145132 61 337 0.0 0.0 0.00 0.00 0.00 90 1032.7
20260509144130 60 337 0.0 0.0 0.00 0.00 0.00 91 1032.7
20260509141233 60 337 0.0 0.0 0.00 0.00 0.00 91 1032.5
20260509140230 60 250 0.0 0.0 0.00 0.00 0.00 92 1032.4
20260509135231 60 337 0.0 0.0 0.00 0.00 0.00 91 1032.5
20260509134330 60 337 0.0 0.0 0.00 0.00 0.00 91 1032.6
20260509133330 60 331 0.0 0.0 0.00 0.00 0.00 91 1032.4
20260509132331 60 333 0.0 0.0 0.00 0.00 0.00 92 1032.3
20260509131331 60 333 0.0 0.0 0.00 0.00 0.00 92 1032.4
20260509130430 60 335 0.0 0.0 0.00 0.00 0.00 92 1032.2
20260509125430 60 334 0.0 0.0 0.00 0.00 0.00 91 1032.3
20260509124430 60 336 0.0 0.0 0.00 0.00 0.00 92 1032.2
20260509123529 60 337 0.0 0.0 0.00 0.00 0.00 92 1032.1
20260509122530 61 334 0.0 0.0 0.00 0.00 0.00 92 1032.0
20260509121532 61 337 0.0 0.0 0.00 0.00 0.00 92 1032.0
20260509120530 61 335 0.0 0.0 0.00 0.00 0.00 92 1032.0
20260509115531 61 335 0.0 0.0 0.00 0.00 0.00 91 1032.1
20260509114531 61 337 0.0 0.0 0.00 0.00 0.00 91 1032.1
20260509112530 61 182 0.0 0.0 0.00 0.00 0.00 91 1032.1
20260509111532 61 180 0.0 0.0 0.00 0.00 0.00 91 1032.2
20260509110531 61 180 0.0 0.0 0.00 0.00 0.00 91 1032.2
20260509105532 61 337 0.0 0.0 0.00 0.00 0.00 91 1032.2
20260509104531 61 180 0.0 0.0 0.00 0.00 0.00 91 1032.0
20260509103530 61 180 0.0 0.0 0.00 0.00 0.00 91 1032.1
20260509102531 61 180 0.0 0.0 0.00 0.00 0.00 91 1032.5
20260509101630 61 337 0.0 0.0 0.00 0.00 0.00 91 1032.4
20260509100632 61 200 0.0 0.0 0.00 0.00 0.00 91 1032.3
20260509093830 61 323 0.0 0.0 0.00 0.00 0.00 90 1032.5
20260509092929 61 337 0.0 0.0 0.00 0.00 0.00 90 1032.5
20260509091929 61 180 0.0 0.0 0.00 0.00 0.00 91 1032.4
20260509090931 61 337 0.0 0.0 0.00 0.00 0.00 91 1032.5
20260509085931 61 336 0.0 0.0 0.00 0.00 0.00 90 1032.7
20260509084930 61 337 0.0 0.0 0.00 0.00 0.00 90 1032.8
20260509083929 61 337 0.0 0.0 0.00 0.00 0.00 91 1032.8
20260509082931 61 337 0.0 0.0 0.00 0.00 0.00 90 1032.9
20260509080030 61 337 0.0 0.0 0.00 0.00 0.00 91 1033.1
20260509075031 61 337 0.0 0.0 0.00 0.00 0.00 90 1033.1
20260509072129 61 336 0.0 0.0 0.00 0.00 0.00 91 1033.1
20260509071130 61 337 0.0 0.0 0.00 0.00 0.00 91 1033.3
20260509070229 61 325 0.0 0.0 0.00 0.00 0.00 91 1033.5
20260509065321 61 337 0.0 0.0 0.00 0.00 0.00 90 1033.5
20260509063420 61 315 0.0 0.0 0.00 0.00 0.00 89 1033.6
20260509062420 61 336 0.0 0.0 0.00 0.00 0.00 90 1033.4
20260509060419 62 336 0.0 0.0 0.00 0.00 0.00 90 1033.6
20260509055518 62 315 0.0 0.0 0.00 0.00 0.00 90 1033.5
20260509054519 62 336 0.0 0.0 0.00 0.00 0.00 90 1033.5
20260509052519 62 335 0.0 0.0 0.00 0.00 0.00 90 1033.7
20260509051518 62 316 0.0 0.0 0.00 0.00 0.00 89 1033.6
20260509045618 62 315 0.0 0.0 0.00 0.00 0.00 89 1033.8
20260509044619 62 315 0.0 0.0 0.00 0.00 0.00 89 1033.6